TimeEST,TemperatureF,Dew PointF,Humidity,Sea Level PressureIn,VisibilityMPH,Wind Direction,Wind SpeedMPH,Gust SpeedMPH,PrecipitationIn,Events,Conditions,WindDirDegrees,DateUTC
12:53 AM,30.9,27.0,85,30.15,3.0,SE,10.4,17.3,0.09,Rain,Light Freezing Rain,130,2013-01-28 05:53:00
1:13 AM,30.2,26.6,86,30.12,3.0,SE,10.4,-,0.07,Rain,Light Freezing Rain,140,2013-01-28 06:13:00
1:25 AM,32.0,28.4,87,30.11,3.0,SE,9.2,18.4,0.08,Rain,Light Freezing Rain,140,2013-01-28 06:25:00
1:44 AM,32.0,28.4,87,30.10,3.0,SE,8.1,18.4,0.09,,Overcast,130,2013-01-28 06:44:00
1:53 AM,32.0,28.0,85,30.13,3.0,SE,11.5,16.1,0.09,,Overcast,140,2013-01-28 06:53:00
2:22 AM,32.0,28.4,87,30.07,3.0,SE,11.5,19.6,N/A,,Overcast,130,2013-01-28 07:22:00
2:40 AM,32.0,28.4,87,30.06,3.0,SE,10.4,-,0.00,Rain,Light Freezing Rain,140,2013-01-28 07:40:00
2:53 AM,32.0,28.0,85,30.08,3.0,SE,9.2,-,0.00,Rain,Light Freezing Rain,140,2013-01-28 07:53:00
3:31 AM,32.0,30.2,93,30.04,3.0,SSE,5.8,-,0.03,,Overcast,150,2013-01-28 08:31:00
3:48 AM,33.8,30.2,87,30.03,3.0,SSE,9.2,-,0.03,Rain,Light Freezing Rain,150,2013-01-28 08:48:00
3:53 AM,33.1,30.0,89,30.05,3.0,SSE,8.1,-,0.04,Rain,Light Rain,150,2013-01-28 08:53:00
4:03 AM,33.8,30.2,87,30.02,3.0,SSE,6.9,-,0.00,Rain,Light Rain,150,2013-01-28 09:03:00
4:20 AM,33.8,30.2,87,30.01,2.5,SSE,9.2,-,0.00,Rain,Light Rain,150,2013-01-28 09:20:00
4:41 AM,33.8,30.2,87,30.00,0.5,SE,6.9,-,0.00,Rain,Light Rain,140,2013-01-28 09:41:00
4:53 AM,33.1,30.9,92,30.02,0.5,SSE,8.1,-,0.00,Rain,Light Rain,150,2013-01-28 09:53:00
5:53 AM,33.1,32.0,96,29.99,0.5,SSE,8.1,-,0.02,Rain,Light Rain,160,2013-01-28 10:53:00
6:53 AM,34.0,33.1,96,29.96,0.5,SSE,8.1,-,0.00,,Light Drizzle,160,2013-01-28 11:53:00
7:53 AM,35.1,33.1,92,29.94,0.5,South,9.2,-,0.00,,Light Drizzle,180,2013-01-28 12:53:00
8:14 AM,35.6,33.8,93,29.92,0.5,South,9.2,-,0.00,,Light Drizzle,180,2013-01-28 13:14:00
8:53 AM,36.0,35.1,97,29.93,0.5,South,9.2,-,0.00,,Light Drizzle,180,2013-01-28 13:53:00
9:29 AM,37.4,35.6,93,29.90,0.5,South,9.2,-,0.00,,Light Drizzle,180,2013-01-28 14:29:00
9:53 AM,39.0,37.0,93,29.91,1.0,South,11.5,-,0.00,Rain,Light Rain,190,2013-01-28 14:53:00
10:09 AM,39.2,37.4,93,29.89,2.0,SSW,15.0,-,0.00,Rain,Light Rain,200,2013-01-28 15:09:00
10:32 AM,42.8,39.2,87,29.89,2.0,SSW,18.4,-,0.00,Rain,Light Rain,200,2013-01-28 15:32:00
10:53 AM,41.0,39.0,93,29.92,3.0,SSW,15.0,24.2,0.01,Rain,Light Rain,200,2013-01-28 15:53:00
11:53 AM,42.1,39.9,92,29.91,3.0,SSW,16.1,-,0.00,Rain,Light Rain,210,2013-01-28 16:53:00
12:43 PM,42.8,41.0,93,29.88,3.0,SSW,16.1,-,0.00,,Overcast,200,2013-01-28 17:43:00
12:53 PM,43.0,41.0,93,29.89,3.0,SSW,15.0,-,0.00,,Overcast,200,2013-01-28 17:53:00
1:06 PM,42.8,41.0,93,29.87,3.0,SSW,15.0,-,N/A,,Overcast,210,2013-01-28 18:06:00
1:53 PM,44.1,42.1,93,29.88,4.0,SSW,15.0,-,N/A,,Overcast,210,2013-01-28 18:53:00
2:05 PM,44.6,42.8,93,29.86,4.0,SSW,15.0,-,N/A,,Overcast,210,2013-01-28 19:05:00
2:43 PM,46.4,42.8,87,29.87,2.0,SSW,16.1,-,N/A,,Overcast,210,2013-01-28 19:43:00
2:53 PM,46.0,44.1,93,29.88,2.0,SW,15.0,-,N/A,,Overcast,220,2013-01-28 19:53:00
3:13 PM,46.4,44.6,93,29.87,1.8,SSW,16.1,-,0.01,,Overcast,210,2013-01-28 20:13:00
3:44 PM,46.4,44.6,93,29.88,1.8,SSW,15.0,-,0.01,Rain,Light Rain,210,2013-01-28 20:44:00
3:53 PM,46.0,44.1,93,29.90,1.8,SSW,13.8,-,0.01,Rain,Light Rain,210,2013-01-28 20:53:00
3:56 PM,46.4,44.6,93,29.89,2.0,SSW,15.0,-,0.00,Rain,Light Rain,210,2013-01-28 20:56:00
4:53 PM,46.0,44.1,93,29.92,2.0,SW,9.2,-,0.00,Rain,Light Rain,230,2013-01-28 21:53:00
5:22 PM,46.4,44.6,93,29.93,1.0,SW,10.4,-,0.01,Rain,Light Rain,230,2013-01-28 22:22:00
5:29 PM,44.6,44.6,100,29.93,0.5,SW,9.2,-,0.01,Rain,Light Rain,230,2013-01-28 22:29:00
5:51 PM,46.4,44.6,93,29.94,1.5,WSW,9.2,-,0.01,,Overcast,240,2013-01-28 22:51:00
5:53 PM,45.0,44.1,97,29.95,1.5,WSW,8.1,-,0.01,,Overcast,240,2013-01-28 22:53:00
6:12 PM,44.6,42.8,93,29.95,1.5,WSW,8.1,-,N/A,,Overcast,250,2013-01-28 23:12:00
6:17 PM,44.6,42.8,93,29.95,5.0,WSW,8.1,-,N/A,,Overcast,250,2013-01-28 23:17:00
6:30 PM,44.6,42.8,93,29.96,5.0,West,9.2,-,N/A,,Overcast,260,2013-01-28 23:30:00
6:53 PM,44.1,42.1,93,29.98,6.0,WNW,5.8,-,N/A,,Overcast,290,2013-01-28 23:53:00
7:22 PM,42.8,41.0,93,29.97,6.0,WNW,5.8,-,N/A,,Overcast,290,2013-01-29 00:22:00
7:53 PM,42.1,39.9,92,30.01,8.0,WNW,5.8,-,N/A,,Overcast,300,2013-01-29 00:53:00
8:53 PM,39.9,37.9,93,30.02,4.0,NW,5.8,-,N/A,,Overcast,310,2013-01-29 01:53:00
9:53 PM,37.9,37.0,97,30.04,5.0,NW,5.8,-,N/A,,Overcast,320,2013-01-29 02:53:00
10:53 PM,37.9,35.1,89,30.04,8.0,NW,3.5,-,N/A,,Overcast,320,2013-01-29 03:53:00
11:06 PM,37.4,35.6,93,30.02,8.0,Calm,Calm,-,N/A,,Overcast,0,2013-01-29 04:06:00
11:53 PM,37.9,34.0,86,30.04,8.0,Calm,Calm,-,N/A,,Overcast,0,2013-01-29 04:53:00